OPS 4467 B

Satellite information

Favourite Embed

Satellite Type and Status

PAYLOADIN ORBIT

Key statistics

Satellite OPS 4467 B at a glance.

Uptime

22299

Days in orbit

Revolutions

≈ 14.2

Per day

Orbit

SSO

Sun Synchronous Orbit

Inclination

99.8

Latest

Satellite identification and parameters

Extended collection of information and parameters for OPS 4467 B.

Object identification

Identified? True

Debris? False

Object name: OPS 4467 B

International designator: 1964-031B

Object number (NORAD): 813

Object ID (CCSDS): 813

Country: UNITED STATES OF AMERICA (US)

Current information (Y/N): Y

RCS size: MEDIUM

Orbital parameters

Period: 101.152 minutes

Inclination: 99.7865 deg

SMA: 7191.332 km

Apoapsis: 817.563 km

Periapsis: 808.831 km

RAAN: 296.4193 deg

Eccentricy: 0.0006071

Argument of periapsis: 67.8312 deg

Mean anomaly: 292.3507 deg

Mean motion: 14.23602553 rev/day

Mean motion (dot): 0.00000029 rev/day2

B* drag term: 0.000036321 1/REarth

Two-line elements (TLE)

Creation date: July 6, 2025, 10:46 p.m.

Reference frame: TEME

Reference center: EARTH

Epoch: July 6, 2025, 8:47 p.m. UTC

TLE line 0: 0 OPS 4467 B

TLE line 1: 1 813U 64031B 25187.86649659 .00000029 00000-0 36321-4 0 9992

TLE line 2: 2 813 99.7865 296.4193 0006071 67.8312 292.3507 14.23602553166274

Live tracking on map

Real-time ground track for satellite OPS 4467 B.

In-orbit conjunctions

There are no conjunctions computed for OPS 4467 B, at the moment. Check back to stay up to date, as we update our databases every day.

Go to all conjunctions

Associated space launch

The DSAP-1 (Defense Satellite Application Program Block 1) satellites series, also known as P-35, was the first series of military meteorologal satellites of the USA.

OPS 4467 B was lifted into orbit during the mission ‘Thor SLV-2 Agena D | DSAP-1 F8 & F9’, on board a Thor SLV-2 Agena D space rocket.

The launch took place on June 18, 1964, 4:56 a.m. from Space Launch Complex 1W.

For more information about the launch, click the button.

Launch to space Thor SLV-2 Agena D | DSAP-1 F8 & F9
Thor SLV-2 Agena D | DSAP-1 F8 & F9

Agency: N/A

Status: Launch Successful

Launch date: June 18, 1964, 4:56 a.m. UTC

Rocket: Thor SLV-2 Agena D

Launch pad: Space Launch Complex 1W

Location: Vandenberg SFB, CA, USA

...

Latest news about this satellite

There are no fresh news available about this satellite. Check back as we update our databases every day.


Newsletter sign-up

Weekly statistics, charts and insights to help you stay on top of the space industry.